Sheridan, WY (82801)

7:06 PM MST on February 09, 2016 (GMT -0700)
South Sheridan | | Change Station
CLOSE
Current Station
Personal Weather Station
Location: Sheridan, WY
Elevation: 3770 ft
Nearby Weather Stations

Elev 3770 ft 44.79 °N, 106.95 °W | Updated 13 seconds ago

Clear
Clear
40.6 °F
Feels Like 41 °F
N
0.2
Wind Variable Wind from South
Gusts 2.5 mph

Today
High -- | Low -- °F
--% Chance of Precip.
Yesterday
High -- | Low -- °F
Precip. -- in
Pressure 30.20 in
Visibility -9999.0 miles
Clouds Clear
Windchill 41 °F
Dew Point 30 °F
Humidity 64%
Rainfall 0.00 in
Snow Depth Not available.
7:17 AM 5:27 PM
Waxing Crescent, 3% visible
METAR KSHR 100153Z AUTO 18005KT CLR 04/M04 A3014 RMK AO2 SLP226 T00391044 $
Pressure 30.20 in
Visibility -9999.0 miles
Clouds Clear
Windchill 41 °F
Dew Point 30 °F
Humidity 64%
Rainfall 0.00 in
Snow Depth Not available.
7:17 AM 5:27 PM
Waxing Crescent, 3% visible
METAR KSHR 100153Z AUTO 18005KT CLR 04/M04 A3014 RMK AO2 SLP226 T00391044 $

10-Day Weather Forecast

Almanac

Astronomy

Feb. 09, 2016 Rise Set
Actual Time
Civil Twilight
Nautical Twilight
Astronomical Twilight
Moon
Length of Visible Light
Length of Day
Tomorrow will be .
, % of the Moon is Illuminated

Today's Extremes

State Highs State Lows

Community

WunderPhotos

Upload Photos

1,891,760 photos uploaded!

WunderBlog® & News

Nearby

Air Quality

  Air Quality AQ Index Pollutant
Not available.

Snow Depth

Station Depth Elevation

Earthquake Activity

City Distance Mag. Time & Date
Minimum magnitude displayed is 2.5.

Coastal Water Temperatures

Place Temperature

Stations

Nearby Weather Stations

Station Location Temp. Windchill Dew Point Humidity Wind Precip. Elev Updated Type
                   

Watches & Warnings

There are currently no watches in effect.